TimeCDT,TemperatureF,Dew PointF,Humidity,Sea Level PressureIn,VisibilityMPH,Wind Direction,Wind SpeedMPH,Gust SpeedMPH,PrecipitationIn,Events,Conditions,WindDirDegrees,DateUTC
12:15 AM,43.5,41.4,92,29.96,10.0,WSW,8.1,-,N/A,,Mostly Cloudy,250,2012-10-10 05:15:00
12:35 AM,42.8,40.6,92,29.97,10.0,WSW,9.2,-,N/A,,Scattered Clouds,250,2012-10-10 05:35:00
12:55 AM,42.1,40.3,93,29.97,10.0,WSW,9.2,-,N/A,,Scattered Clouds,250,2012-10-10 05:55:00
1:15 AM,42.1,40.3,93,29.97,10.0,West,8.1,-,N/A,,Clear,260,2012-10-10 06:15:00
1:35 AM,41.9,40.3,94,29.98,10.0,West,9.2,-,N/A,,Clear,270,2012-10-10 06:35:00
1:55 AM,41.0,39.2,93,29.98,10.0,West,9.2,-,N/A,,Clear,280,2012-10-10 06:55:00
2:15 AM,41.0,38.5,91,29.99,10.0,West,9.2,-,N/A,,Clear,280,2012-10-10 07:15:00
2:35 AM,40.3,37.6,90,29.99,10.0,West,9.2,-,N/A,,Clear,280,2012-10-10 07:35:00
2:55 AM,39.7,36.7,89,29.99,10.0,West,10.4,-,N/A,,Clear,280,2012-10-10 07:55:00
3:15 AM,39.6,36.9,90,29.99,10.0,West,10.4,-,N/A,,Clear,270,2012-10-10 08:15:00
3:35 AM,38.8,36.3,91,30.00,10.0,West,8.1,-,N/A,,Clear,280,2012-10-10 08:35:00
3:55 AM,37.9,35.2,90,30.01,10.0,West,9.2,-,N/A,,Clear,280,2012-10-10 08:55:00
4:15 AM,37.4,34.3,89,30.01,10.0,West,9.2,-,N/A,,Clear,280,2012-10-10 09:15:00
4:35 AM,36.9,33.8,89,30.01,10.0,West,8.1,-,N/A,,Clear,280,2012-10-10 09:35:00
4:55 AM,36.7,33.3,87,30.02,10.0,West,9.2,-,N/A,,Clear,280,2012-10-10 09:55:00
5:15 AM,36.5,32.9,87,30.03,10.0,WNW,9.2,-,N/A,,Clear,290,2012-10-10 10:15:00
5:35 AM,36.3,32.4,86,30.04,10.0,WNW,10.4,-,N/A,,Clear,290,2012-10-10 10:35:00
5:55 AM,35.8,32.0,86,30.05,10.0,WNW,8.1,-,N/A,,Clear,290,2012-10-10 10:55:00
6:15 AM,35.6,31.8,86,30.06,10.0,WNW,10.4,-,N/A,,Clear,290,2012-10-10 11:15:00
6:35 AM,35.6,31.8,86,30.07,10.0,WNW,9.2,-,N/A,,Clear,290,2012-10-10 11:35:00
6:55 AM,35.4,31.6,86,30.07,10.0,WNW,9.2,-,N/A,,Clear,290,2012-10-10 11:55:00
7:15 AM,35.2,31.6,87,30.08,10.0,WNW,10.4,-,N/A,,Clear,290,2012-10-10 12:15:00
7:35 AM,35.6,31.6,85,30.09,10.0,West,9.2,-,N/A,,Clear,280,2012-10-10 12:35:00
7:55 AM,35.8,31.8,86,30.11,10.0,West,9.2,-,N/A,,Clear,280,2012-10-10 12:55:00
8:15 AM,37.4,32.0,81,30.12,10.0,WNW,10.4,17.3,N/A,,Clear,290,2012-10-10 13:15:00
8:35 AM,37.9,32.0,79,30.13,10.0,WNW,13.8,20.7,N/A,,Clear,290,2012-10-10 13:35:00
8:55 AM,39.4,32.5,76,30.13,10.0,WNW,13.8,21.9,N/A,,Clear,300,2012-10-10 13:55:00
9:15 AM,40.1,32.5,74,30.14,10.0,WNW,17.3,-,N/A,,Clear,300,2012-10-10 14:15:00
9:35 AM,41.4,32.5,71,30.15,10.0,WNW,13.8,18.4,N/A,,Clear,300,2012-10-10 14:35:00
9:55 AM,42.6,32.7,68,30.16,10.0,WNW,18.4,25.3,N/A,,Clear,300,2012-10-10 14:55:00
10:15 AM,43.2,32.4,66,30.16,10.0,WNW,16.1,-,N/A,,Clear,290,2012-10-10 15:15:00
10:35 AM,44.6,32.2,62,30.16,10.0,WNW,15.0,19.6,N/A,,Clear,300,2012-10-10 15:35:00
10:55 AM,45.0,31.8,60,30.16,10.0,West,13.8,-,N/A,,Clear,280,2012-10-10 15:55:00
11:15 AM,46.4,32.0,57,30.17,10.0,WNW,17.3,20.7,N/A,,Scattered Clouds,290,2012-10-10 16:15:00
11:55 AM,48.0,31.6,53,30.18,10.0,WNW,15.0,23.0,N/A,,Scattered Clouds,290,2012-10-10 16:55:00
12:15 PM,48.0,32.0,54,30.18,10.0,West,18.4,23.0,N/A,,Scattered Clouds,280,2012-10-10 17:15:00
12:35 PM,48.6,31.3,51,30.17,10.0,WNW,15.0,25.3,N/A,,Scattered Clouds,290,2012-10-10 17:35:00
12:55 PM,49.1,30.9,50,30.17,10.0,WNW,17.3,27.6,N/A,,Scattered Clouds,300,2012-10-10 17:55:00
1:15 PM,50.2,30.7,47,30.16,10.0,West,18.4,25.3,N/A,,Mostly Cloudy,280,2012-10-10 18:15:00
1:35 PM,51.3,31.3,46,30.16,10.0,West,19.6,28.8,N/A,,Mostly Cloudy,270,2012-10-10 18:35:00
1:55 PM,50.9,31.5,47,30.16,10.0,West,17.3,23.0,N/A,,Mostly Cloudy,280,2012-10-10 18:55:00
2:15 PM,50.7,30.7,46,30.15,10.0,WNW,19.6,23.0,N/A,,Mostly Cloudy,300,2012-10-10 19:15:00
2:35 PM,52.3,29.5,42,30.15,10.0,WNW,15.0,23.0,N/A,,Mostly Cloudy,290,2012-10-10 19:35:00
2:55 PM,52.5,30.2,42,30.15,10.0,WNW,15.0,20.7,N/A,,Scattered Clouds,290,2012-10-10 19:55:00
3:15 PM,51.1,28.6,42,30.15,10.0,WNW,17.3,25.3,N/A,,Scattered Clouds,290,2012-10-10 20:15:00
3:35 PM,53.2,30.0,41,30.14,10.0,West,13.8,25.3,N/A,,Scattered Clouds,280,2012-10-10 20:35:00
3:55 PM,54.1,30.0,40,30.13,10.0,WNW,12.7,20.7,N/A,,Mostly Cloudy,290,2012-10-10 20:55:00
4:15 PM,53.1,28.6,39,30.13,10.0,West,15.0,27.6,N/A,,Mostly Cloudy,280,2012-10-10 21:15:00
4:35 PM,52.9,28.9,40,30.13,10.0,West,13.8,19.6,N/A,,Scattered Clouds,280,2012-10-10 21:35:00
4:55 PM,52.9,28.2,39,30.14,10.0,WNW,13.8,20.7,N/A,,Clear,290,2012-10-10 21:55:00
5:15 PM,52.3,28.9,41,30.14,10.0,WNW,12.7,20.7,N/A,,Clear,290,2012-10-10 22:15:00
5:35 PM,52.2,28.0,39,30.14,10.0,West,10.4,17.3,N/A,,Scattered Clouds,280,2012-10-10 22:35:00
5:55 PM,50.7,28.0,42,30.15,10.0,West,9.2,-,N/A,,Clear,280,2012-10-10 22:55:00
6:15 PM,50.0,28.4,43,30.15,10.0,West,8.1,-,N/A,,Clear,280,2012-10-10 23:15:00
6:35 PM,46.8,28.8,50,30.15,10.0,West,8.1,-,N/A,,Clear,270,2012-10-10 23:35:00
6:55 PM,44.6,29.1,55,30.16,10.0,West,5.8,-,N/A,,Clear,280,2012-10-10 23:55:00
7:15 PM,44.6,29.1,55,30.17,10.0,West,4.6,-,N/A,,Clear,280,2012-10-11 00:15:00
7:35 PM,43.0,28.9,58,30.17,10.0,WNW,4.6,-,N/A,,Clear,290,2012-10-11 00:35:00
7:55 PM,44.2,28.8,55,30.18,10.0,West,3.5,-,N/A,,Clear,270,2012-10-11 00:55:00
8:15 PM,43.2,28.6,56,30.18,10.0,Calm,Calm,-,N/A,,Clear,0,2012-10-11 01:15:00
8:35 PM,43.3,28.8,56,30.18,10.0,SW,3.5,-,N/A,,Clear,220,2012-10-11 01:35:00
8:55 PM,43.5,28.6,56,30.18,10.0,Calm,Calm,-,N/A,,Clear,0,2012-10-11 01:55:00
9:15 PM,43.0,29.1,58,30.18,10.0,SSW,3.5,-,N/A,,Clear,200,2012-10-11 02:15:00
9:35 PM,41.9,30.6,64,30.18,10.0,South,3.5,-,N/A,,Clear,190,2012-10-11 02:35:00
9:55 PM,41.7,30.4,64,30.18,10.0,South,4.6,-,N/A,,Clear,180,2012-10-11 02:55:00
10:15 PM,40.6,30.6,67,30.18,10.0,South,4.6,-,N/A,,Clear,170,2012-10-11 03:15:00
10:35 PM,40.3,31.1,70,30.18,10.0,South,5.8,-,N/A,,Clear,180,2012-10-11 03:35:00
10:55 PM,38.3,31.3,76,30.17,10.0,South,5.8,-,N/A,,Clear,170,2012-10-11 03:55:00
11:15 PM,37.9,30.7,75,30.17,10.0,South,5.8,-,N/A,,Clear,170,2012-10-11 04:15:00
11:35 PM,38.5,30.9,74,30.17,10.0,South,5.8,-,N/A,,Clear,180,2012-10-11 04:35:00
11:55 PM,37.4,30.2,75,30.16,10.0,South,5.8,-,N/A,,Clear,180,2012-10-11 04:55:00